| time (UTC) | temp C | wind direction | speed KPH | gust KPH | rain 1hr cm | rain 24hr cm | rain mn cm | humidity % | barometer mb |
| 20260903025410 | 27 | 158 | 8.0 | 8.0 | 0.00 | 0.00 | 0.00 | 81 | 1012.9 |
| 20260903024906 | 27 | 180 | 6.4 | 8.0 | 0.00 | 0.00 | 0.00 | 81 | 1012.9 |
| 20260903024406 | 27 | 158 | 3.2 | 8.0 | 0.00 | 0.00 | 0.00 | 81 | 1012.9 |
| 20260903023901 | 27 | 180 | 3.2 | 9.7 | 0.00 | 0.00 | 0.00 | 81 | 1012.9 |
| 20260903023355 | 27 | 180 | 3.2 | 11.3 | 0.00 | 0.00 | 0.00 | 80 | 1012.9 |
| 20260903022850 | 27 | 180 | 3.2 | 11.3 | 0.00 | 0.00 | 0.00 | 80 | 1012.9 |
| 20260903022346 | 27 | 180 | 3.2 | 11.3 | 0.00 | 0.00 | 0.00 | 80 | 1012.9 |
| 20260903021841 | 28 | 158 | 3.2 | 11.3 | 0.00 | 0.00 | 0.00 | 80 | 1012.9 |
| 20260903021335 | 28 | 270 | 3.2 | 11.3 | 0.00 | 0.00 | 0.00 | 79 | 1012.9 |
| 20260903020831 | 28 | 225 | 8.0 | 11.3 | 0.00 | 0.00 | 0.00 | 79 | 1012.9 |
| 20260903020331 | 28 | 203 | 3.2 | 11.3 | 0.00 | 0.00 | 0.00 | 79 | 1012.9 |
| 20260903015830 | 28 | 180 | 4.8 | 11.3 | 0.00 | 0.00 | 0.00 | 79 | 1012.5 |
| 20260903015325 | 28 | 180 | 6.4 | 11.3 | 0.00 | 0.00 | 0.00 | 79 | 1012.5 |
| 20260903014820 | 28 | 203 | 8.0 | 11.3 | 0.00 | 0.00 | 0.00 | 79 | 1012.5 |
| 20260903014315 | 28 | 23 | 6.4 | 11.3 | 0.00 | 0.00 | 0.00 | 78 | 1012.5 |
| 20260903013810 | 28 | 203 | 6.4 | 11.3 | 0.00 | 0.00 | 0.00 | 78 | 1012.5 |
| 20260903013306 | 28 | 180 | 4.8 | 11.3 | 0.00 | 0.00 | 0.00 | 78 | 1012.5 |
| 20260903012800 | 28 | 180 | 4.8 | 9.7 | 0.00 | 0.00 | 0.00 | 78 | 1012.5 |
| 20260903012256 | 28 | 180 | 6.4 | 9.7 | 0.00 | 0.00 | 0.00 | 78 | 1012.2 |
| 20260903011751 | 28 | 113 | 3.2 | 9.7 | 0.00 | 0.00 | 0.00 | 78 | 1012.2 |
| 20260903011246 | 28 | 203 | 6.4 | 9.7 | 0.00 | 0.00 | 0.00 | 78 | 1012.2 |
| 20260903010741 | 28 | 248 | 6.4 | 9.7 | 0.00 | 0.00 | 0.00 | 78 | 1012.2 |
| 20260903010236 | 28 | 180 | 6.4 | 9.7 | 0.00 | 0.00 | 0.00 | 78 | 1012.2 |
| 20260903005735 | 28 | 180 | 3.2 | 9.7 | 0.00 | 0.00 | 0.00 | 78 | 1012.2 |
| 20260903005232 | 28 | 203 | 6.4 | 9.7 | 0.00 | 0.00 | 0.00 | 77 | 1012.2 |
| 20260903004725 | 29 | 180 | 3.2 | 9.7 | 0.00 | 0.00 | 0.00 | 77 | 1011.9 |
| 20260903004221 | 29 | 180 | 6.4 | 9.7 | 0.00 | 0.00 | 0.00 | 77 | 1011.9 |
| 20260903003717 | 29 | 180 | 8.0 | 9.7 | 0.00 | 0.00 | 0.00 | 76 | 1012.2 |
| 20260903003210 | 29 | 158 | 4.8 | 9.7 | 0.00 | 0.00 | 0.00 | 76 | 1012.2 |
| 20260903002705 | 29 | 180 | 3.2 | 9.7 | 0.00 | 0.00 | 0.00 | 76 | 1012.2 |
| 20260903002201 | 30 | 180 | 6.4 | 9.7 | 0.00 | 0.00 | 0.00 | 75 | 1011.9 |
| 20260903001656 | 30 | 180 | 4.8 | 9.7 | 0.00 | 0.00 | 0.00 | 75 | 1011.9 |
| 20260903001150 | 30 | 180 | 4.8 | 9.7 | 0.00 | 0.00 | 0.00 | 74 | 1012.2 |
| 20260903000646 | 30 | 180 | 9.7 | 9.7 | 0.00 | 0.00 | 0.00 | 73 | 1012.2 |
| 20260903000141 | 30 | 180 | 8.0 | 9.7 | 0.00 | 0.00 | 0.00 | 73 | 1012.2 |
| 20260902235635 | 30 | 180 | 8.0 | 9.7 | 0.00 | 0.00 | 0.00 | 72 | 1012.2 |
| 20260902235132 | 31 | 203 | 3.2 | 9.7 | 0.00 | 0.00 | 0.00 | 71 | 1012.2 |
| 20260902234631 | 31 | 135 | 8.0 | 9.7 | 0.00 | 0.00 | 0.00 | 70 | 1012.2 |
| 20260902234131 | 31 | 180 | 3.2 | 11.3 | 0.00 | 0.00 | 0.00 | 70 | 1012.2 |
| 20260902233631 | 31 | 158 | 6.4 | 11.3 | 0.00 | 0.00 | 0.00 | 69 | 1012.2 |
| 20260902233131 | 32 | 158 | 3.2 | 11.3 | 0.00 | 0.00 | 0.00 | 68 | 1012.2 |
| 20260902232625 | 32 | 180 | 6.4 | 11.3 | 0.00 | 0.00 | 0.00 | 67 | 1012.2 |
| 20260902232121 | 32 | 135 | 3.2 | 11.3 | 0.00 | 0.00 | 0.00 | 67 | 1012.2 |
| 20260902231616 | 32 | 113 | 9.7 | 11.3 | 0.00 | 0.00 | 0.00 | 65 | 1012.2 |
| 20260902231110 | 32 | 180 | 4.8 | 14.5 | 0.00 | 0.00 | 0.00 | 66 | 1012.2 |
| 20260902230606 | 32 | 180 | 8.0 | 14.5 | 0.00 | 0.00 | 0.00 | 66 | 1012.2 |
| 20260902230101 | 33 | 270 | 4.8 | 17.7 | 0.00 | 0.00 | 0.00 | 64 | 1012.2 |
| 20260902225555 | 33 | 90 | 8.0 | 17.7 | 0.00 | 0.00 | 0.00 | 61 | 1012.2 |
| 20260902225051 | 34 | 203 | 6.4 | 17.7 | 0.00 | 0.00 | 0.00 | 61 | 1012.2 |
| 20260902224545 | 34 | 68 | 8.0 | 17.7 | 0.00 | 0.00 | 0.00 | 61 | 1012.2 |
| 20260902224041 | 34 | 203 | 6.4 | 17.7 | 0.00 | 0.00 | 0.00 | 61 | 1012.2 |
| 20260902223536 | 34 | 68 | 8.0 | 17.7 | 0.00 | 0.00 | 0.00 | 60 | 1012.2 |
| 20260902223036 | 35 | 203 | 3.2 | 17.7 | 0.00 | 0.00 | 0.00 | 60 | 1012.2 |
| 20260902222536 | 34 | 225 | 6.4 | 17.7 | 0.00 | 0.00 | 0.00 | 60 | 1012.2 |
| 20260902222036 | 34 | 270 | 8.0 | 17.7 | 0.00 | 0.00 | 0.00 | 59 | 1012.2 |
| 20260902221531 | 35 | 180 | 6.4 | 17.7 | 0.00 | 0.00 | 0.00 | 58 | 1012.2 |
| 20260902221030 | 34 | 180 | 8.0 | 17.7 | 0.00 | 0.00 | 0.00 | 59 | 1012.2 |
| 20260902220526 | 35 | 270 | 11.3 | 17.7 | 0.00 | 0.00 | 0.00 | 57 | 1012.2 |
| 20260902220020 | 34 | 180 | 9.7 | 19.3 | 0.00 | 0.00 | 0.00 | 58 | 1012.2 |
| 20260902215516 | 35 | 338 | 8.0 | 19.3 | 0.00 | 0.00 | 0.00 | 57 | 1012.2 |
| 20260902215011 | 35 | 180 | 9.7 | 19.3 | 0.00 | 0.00 | 0.00 | 56 | 1012.2 |
| 20260902214505 | 35 | 135 | 6.4 | 19.3 | 0.00 | 0.00 | 0.00 | 57 | 1012.2 |
| 20260902214001 | 35 | 135 | 6.4 | 19.3 | 0.00 | 0.00 | 0.00 | 55 | 1012.2 |
| 20260902213456 | 35 | 45 | 9.7 | 19.3 | 0.00 | 0.00 | 0.00 | 55 | 1012.5 |
| 20260902212951 | 35 | 203 | 8.0 | 19.3 | 0.00 | 0.00 | 0.00 | 55 | 1012.5 |
| 20260902212446 | 35 | 180 | 8.0 | 19.3 | 0.00 | 0.00 | 0.00 | 54 | 1012.2 |
| 20260902211941 | 35 | 203 | 8.0 | 19.3 | 0.00 | 0.00 | 0.00 | 57 | 1012.2 |
| 20260902211436 | 35 | 90 | 11.3 | 19.3 | 0.00 | 0.00 | 0.00 | 56 | 1012.2 |
| 20260902210936 | 36 | 225 | 8.0 | 19.3 | 0.00 | 0.00 | 0.00 | 55 | 1012.5 |
| 20260902210431 | 35 | 203 | 8.0 | 19.3 | 0.00 | 0.00 | 0.00 | 57 | 1012.5 |
| 20260902205931 | 36 | 158 | 14.5 | 19.3 | 0.00 | 0.00 | 0.00 | 54 | 1012.5 |
| 20260902205425 | 35 | 180 | 11.3 | 19.3 | 0.00 | 0.00 | 0.00 | 55 | 1012.5 |
| 20260902204921 | 36 | 203 | 11.3 | 19.3 | 0.00 | 0.00 | 0.00 | 54 | 1012.5 |
| 20260902204415 | 36 | 180 | 8.0 | 19.3 | 0.00 | 0.00 | 0.00 | 56 | 1012.5 |
| 20260902203910 | 36 | 113 | 9.7 | 19.3 | 0.00 | 0.00 | 0.00 | 53 | 1012.5 |
| 20260902203406 | 35 | 225 | 9.7 | 19.3 | 0.00 | 0.00 | 0.00 | 57 | 1012.9 |
| 20260902202906 | 36 | 180 | 9.7 | 17.7 | 0.00 | 0.00 | 0.00 | 56 | 1012.9 |
| 20260902202400 | 36 | 248 | 11.3 | 17.7 | 0.00 | 0.00 | 0.00 | 55 | 1012.9 |
| 20260902201855 | 35 | 135 | 9.7 | 17.7 | 0.00 | 0.00 | 0.00 | 54 | 1012.9 |
| 20260902201351 | 36 | 248 | 8.0 | 17.7 | 0.00 | 0.00 | 0.00 | 56 | 1012.9 |
| 20260902200845 | 36 | 225 | 8.0 | 17.7 | 0.00 | 0.00 | 0.00 | 56 | 1012.9 |
| 20260902200340 | 36 | 293 | 12.9 | 17.7 | 0.00 | 0.00 | 0.00 | 55 | 1012.9 |
| 20260902195835 | 36 | 270 | 8.0 | 17.7 | 0.00 | 0.00 | 0.00 | 56 | 1012.9 |
| 20260902195336 | 36 | 203 | 11.3 | 17.7 | 0.00 | 0.00 | 0.00 | 54 | 1012.9 |
| 20260902194834 | 36 | 293 | 6.4 | 17.7 | 0.00 | 0.00 | 0.00 | 54 | 1013.2 |
| 20260902194333 | 36 | 180 | 6.4 | 17.7 | 0.00 | 0.00 | 0.00 | 54 | 1013.2 |
| 20260902193830 | 36 | 158 | 11.3 | 17.7 | 0.00 | 0.00 | 0.00 | 53 | 1013.2 |
| 20260902193325 | 36 | 90 | 6.4 | 17.7 | 0.00 | 0.00 | 0.00 | 54 | 1013.2 |
| 20260902192820 | 35 | 248 | 8.0 | 17.7 | 0.00 | 0.00 | 0.00 | 56 | 1013.2 |
| 20260902192316 | 35 | 203 | 16.1 | 17.7 | 0.00 | 0.00 | 0.00 | 56 | 1013.2 |
| 20260902191810 | 35 | 225 | 9.7 | 17.7 | 0.00 | 0.00 | 0.00 | 55 | 1013.2 |
| 20260902191305 | 35 | 203 | 11.3 | 16.1 | 0.00 | 0.00 | 0.00 | 55 | 1013.2 |
| 20260902190801 | 36 | 203 | 9.7 | 14.5 | 0.00 | 0.00 | 0.00 | 57 | 1013.2 |
| 20260902190256 | 35 | 225 | 11.3 | 11.3 | 0.00 | 0.00 | 0.00 | 56 | 1013.2 |
| 20260902184910 | 35 | 180 | 9.7 | 24.1 | 0.00 | 0.00 | 0.00 | 58 | 1013.5 |
| 20260902184405 | 35 | 158 | 9.7 | 24.1 | 0.00 | 0.00 | 0.00 | 57 | 1013.5 |
| 20260902183905 | 35 | 180 | 14.5 | 24.1 | 0.00 | 0.00 | 0.00 | 57 | 1013.5 |
| 20260902183400 | 35 | 180 | 14.5 | 24.1 | 0.00 | 0.00 | 0.00 | 57 | 1013.5 |
| 20260902182855 | 35 | 158 | 9.7 | 17.7 | 0.00 | 0.00 | 0.00 | 58 | 1013.5 |
| 20260902182349 | 35 | 248 | 9.7 | 17.7 | 0.00 | 0.00 | 0.00 | 57 | 1013.5 |
| 20260902181845 | 35 | 180 | 9.7 | 17.7 | 0.00 | 0.00 | 0.00 | 58 | 1013.5 |
| 20260902181340 | 34 | 158 | 12.9 | 17.7 | 0.00 | 0.00 | 0.00 | 59 | 1013.5 |
| 20260902180840 | 35 | 180 | 11.3 | 17.7 | 0.00 | 0.00 | 0.00 | 55 | 1013.5 |
| 20260902180335 | 35 | 135 | 9.7 | 17.7 | 0.00 | 0.00 | 0.00 | 57 | 1013.5 |
| 20260902175830 | 35 | 203 | 9.7 | 16.1 | 0.00 | 0.00 | 0.00 | 58 | 1013.9 |
| 20260902175325 | 35 | 203 | 9.7 | 16.1 | 0.00 | 0.00 | 0.00 | 58 | 1013.9 |
| 20260902174820 | 35 | 23 | 8.0 | 16.1 | 0.00 | 0.00 | 0.00 | 57 | 1013.9 |
| 20260902174315 | 34 | 158 | 9.7 | 16.1 | 0.00 | 0.00 | 0.00 | 60 | 1013.9 |
| 20260902173810 | 33 | 180 | 8.0 | 16.1 | 0.00 | 0.00 | 0.00 | 60 | 1013.9 |
| 20260902173305 | 35 | 180 | 8.0 | 16.1 | 0.00 | 0.00 | 0.00 | 57 | 1014.2 |
| 20260902172800 | 34 | 180 | 8.0 | 16.1 | 0.00 | 0.00 | 0.00 | 59 | 1014.2 |
| 20260902172255 | 34 | 180 | 6.4 | 16.1 | 0.00 | 0.00 | 0.00 | 59 | 1014.2 |
| 20260902171750 | 34 | 180 | 9.7 | 16.1 | 0.00 | 0.00 | 0.00 | 58 | 1014.2 |
| 20260902171245 | 33 | 180 | 14.5 | 16.1 | 0.00 | 0.00 | 0.00 | 60 | 1014.2 |
| 20260902170740 | 33 | 180 | 12.9 | 16.1 | 0.00 | 0.00 | 0.00 | 60 | 1014.2 |
| 20260902170235 | 34 | 113 | 4.8 | 12.9 | 0.00 | 0.00 | 0.00 | 60 | 1014.2 |
| 20260902165730 | 34 | 180 | 8.0 | 12.9 | 0.00 | 0.00 | 0.00 | 60 | 1014.2 |
| 20260902165225 | 34 | 203 | 6.4 | 12.9 | 0.00 | 0.00 | 0.00 | 60 | 1014.2 |
| 20260902164720 | 34 | 68 | 8.0 | 12.9 | 0.00 | 0.00 | 0.00 | 58 | 1014.2 |
| 20260902164215 | 34 | 158 | 3.2 | 14.5 | 0.00 | 0.00 | 0.00 | 58 | 1014.2 |
| 20260902163715 | 34 | 135 | 6.4 | 14.5 | 0.00 | 0.00 | 0.00 | 60 | 1014.2 |
| 20260902163210 | 33 | 158 | 9.7 | 14.5 | 0.00 | 0.00 | 0.00 | 60 | 1014.2 |
| 20260902162705 | 33 | 203 | 8.0 | 14.5 | 0.00 | 0.00 | 0.00 | 59 | 1014.2 |
| 20260902162200 | 34 | 135 | 11.3 | 14.5 | 0.00 | 0.00 | 0.00 | 58 | 1014.6 |
| 20260902161655 | 33 | 225 | 8.0 | 14.5 | 0.00 | 0.00 | 0.00 | 60 | 1014.6 |
| 20260902161150 | 32 | 180 | 9.7 | 14.5 | 0.00 | 0.00 | 0.00 | 61 | 1014.6 |
| 20260902160645 | 33 | 180 | 9.7 | 14.5 | 0.00 | 0.00 | 0.00 | 59 | 1014.6 |
| 20260902160140 | 33 | 293 | 6.4 | 14.5 | 0.00 | 0.00 | 0.00 | 61 | 1014.6 |
| 20260902155636 | 33 | 225 | 8.0 | 14.5 | 0.00 | 0.00 | 0.00 | 61 | 1014.9 |
| 20260902155131 | 33 | 180 | 6.4 | 14.5 | 0.00 | 0.00 | 0.00 | 62 | 1014.9 |
| 20260902154630 | 32 | 180 | 11.3 | 17.7 | 0.00 | 0.00 | 0.00 | 63 | 1014.6 |
| 20260902154125 | 32 | 180 | 11.3 | 17.7 | 0.00 | 0.00 | 0.00 | 63 | 1014.6 |
| 20260902153620 | 32 | 180 | 11.3 | 17.7 | 0.00 | 0.00 | 0.00 | 63 | 1014.6 |
| 20260902153116 | 32 | 180 | 11.3 | 17.7 | 0.00 | 0.00 | 0.00 | 63 | 1014.6 |
| 20260902152611 | 32 | 203 | 9.7 | 17.7 | 0.00 | 0.00 | 0.00 | 62 | 1014.6 |
| 20260902152111 | 32 | 338 | 11.3 | 17.7 | 0.00 | 0.00 | 0.00 | 61 | 1014.9 |
| 20260902151610 | 32 | 180 | 6.4 | 17.7 | 0.00 | 0.00 | 0.00 | 62 | 1014.9 |
| 20260902151106 | 32 | 203 | 8.0 | 17.7 | 0.00 | 0.00 | 0.00 | 62 | 1014.9 |
| 20260902150601 | 32 | 135 | 11.3 | 17.7 | 0.00 | 0.00 | 0.00 | 63 | 1014.9 |
| 20260902150100 | 32 | 270 | 12.9 | 17.7 | 0.00 | 0.00 | 0.00 | 61 | 1014.9 |
| 20260902145555 | 31 | 180 | 9.7 | 17.7 | 0.00 | 0.00 | 0.00 | 64 | 1014.6 |
| 20260902145050 | 31 | 248 | 6.4 | 17.7 | 0.00 | 0.00 | 0.00 | 65 | 1014.6 |
| 20260902144545 | 31 | 248 | 6.4 | 17.7 | 0.00 | 0.00 | 0.00 | 65 | 1014.6 |
| 20260902144040 | 31 | 248 | 6.4 | 17.7 | 0.00 | 0.00 | 0.00 | 65 | 1014.6 |
| 20260902143535 | 31 | 180 | 11.3 | 17.7 | 0.00 | 0.00 | 0.00 | 64 | 1014.6 |
| 20260902143030 | 30 | 45 | 11.3 | 17.7 | 0.00 | 0.00 | 0.00 | 65 | 1014.6 |
| 20260902142525 | 30 | 180 | 11.3 | 17.7 | 0.00 | 0.00 | 0.00 | 67 | 1014.6 |
| 20260902142020 | 30 | 248 | 11.3 | 17.7 | 0.00 | 0.00 | 0.00 | 66 | 1014.6 |
| 20260902141515 | 30 | 0 | 9.7 | 17.7 | 0.00 | 0.00 | 0.00 | 66 | 1014.6 |
| 20260902141010 | 30 | 315 | 8.0 | 16.1 | 0.00 | 0.00 | 0.00 | 66 | 1014.6 |
| 20260902140505 | 30 | 180 | 11.3 | 14.5 | 0.00 | 0.00 | 0.00 | 67 | 1014.6 |
| 20260902140000 | 30 | 270 | 14.5 | 14.5 | 0.00 | 0.00 | 0.00 | 66 | 1014.6 |
| 20260902135455 | 29 | 203 | 11.3 | 12.9 | 0.00 | 0.00 | 0.00 | 68 | 1014.6 |
| 20260902134950 | 29 | 180 | 11.3 | 12.9 | 0.00 | 0.00 | 0.00 | 68 | 1014.6 |
| 20260902134445 | 28 | 203 | 8.0 | 12.9 | 0.00 | 0.00 | 0.00 | 70 | 1014.6 |
| 20260902133940 | 28 | 113 | 6.4 | 12.9 | 0.00 | 0.00 | 0.00 | 70 | 1014.6 |
| 20260902133435 | 27 | 203 | 8.0 | 12.9 | 0.00 | 0.00 | 0.00 | 74 | 1014.9 |
| 20260902132935 | 27 | 270 | 8.0 | 12.9 | 0.00 | 0.00 | 0.00 | 74 | 1014.9 |
| 20260902132429 | 27 | 248 | 11.3 | 12.9 | 0.00 | 0.00 | 0.00 | 73 | 1014.9 |
| 20260902131925 | 27 | 203 | 8.0 | 12.9 | 0.00 | 0.00 | 0.00 | 74 | 1014.9 |
| 20260902131420 | 26 | 180 | 6.4 | 12.9 | 0.00 | 0.00 | 0.00 | 77 | 1014.9 |
| 20260902130915 | 26 | 180 | 4.8 | 12.9 | 0.00 | 0.00 | 0.00 | 77 | 1015.2 |
| 20260902130410 | 26 | 225 | 8.0 | 12.9 | 0.00 | 0.00 | 0.00 | 77 | 1015.2 |
| 20260902125910 | 26 | 315 | 9.7 | 12.9 | 0.00 | 0.00 | 0.00 | 77 | 1015.2 |
| 20260902125405 | 26 | 158 | 6.4 | 12.9 | 0.00 | 0.00 | 0.00 | 78 | 1015.2 |
| 20260902124900 | 26 | 203 | 6.4 | 12.9 | 0.00 | 0.00 | 0.00 | 79 | 1015.2 |
| 20260902124359 | 25 | 270 | 3.2 | 8.0 | 0.00 | 0.00 | 0.00 | 80 | 1015.2 |
| 20260902123855 | 25 | 180 | 6.4 | 8.0 | 0.00 | 0.00 | 0.00 | 80 | 1015.2 |
| 20260902123350 | 25 | 203 | 3.2 | 8.0 | 0.00 | 0.00 | 0.00 | 82 | 1015.2 |
| 20260902122845 | 25 | 203 | 3.2 | 8.0 | 0.00 | 0.00 | 0.00 | 81 | 1015.2 |
| 20260902122345 | 25 | 270 | 6.4 | 8.0 | 0.00 | 0.00 | 0.00 | 83 | 1015.2 |
| 20260902121840 | 25 | 180 | 3.2 | 8.0 | 0.00 | 0.00 | 0.00 | 83 | 1015.2 |
| 20260902121335 | 24 | 203 | 3.2 | 8.0 | 0.00 | 0.00 | 0.00 | 85 | 1015.2 |
| 20260902120835 | 24 | 203 | 6.4 | 6.4 | 0.00 | 0.00 | 0.00 | 84 | 1015.2 |
| 20260902120330 | 24 | 180 | 3.2 | 6.4 | 0.00 | 0.00 | 0.00 | 86 | 1015.2 |
| 20260902115825 | 23 | 158 | 1.6 | 6.4 | 0.00 | 0.00 | 0.00 | 88 | 1015.2 |
| 20260902115320 | 23 | 135 | 0.0 | 6.4 | 0.00 | 0.00 | 0.00 | 87 | 1015.2 |
| 20260902114815 | 23 | 158 | 0.0 | 6.4 | 0.00 | 0.00 | 0.00 | 88 | 1015.2 |
| 20260902114315 | 23 | 158 | 0.0 | 4.8 | 0.00 | 0.00 | 0.00 | 89 | 1015.2 |
| 20260902113815 | 23 | 225 | 1.6 | 4.8 | 0.00 | 0.00 | 0.00 | 89 | 1015.2 |
| 20260902113310 | 23 | 293 | 1.6 | 4.8 | 0.00 | 0.00 | 0.00 | 89 | 1014.9 |
| 20260902112805 | 23 | 225 | 0.0 | 3.2 | 0.00 | 0.00 | 0.00 | 90 | 1014.9 |
| 20260902112300 | 23 | 203 | 0.0 | 3.2 | 0.00 | 0.00 | 0.00 | 91 | 1014.9 |
| 20260902111755 | 23 | 203 | 3.2 | 3.2 | 0.00 | 0.00 | 0.00 | 91 | 1014.9 |
| 20260902111250 | 23 | 158 | 0.0 | 3.2 | 0.00 | 0.00 | 0.00 | 91 | 1014.9 |
| 20260902110745 | 23 | 135 | 3.2 | 3.2 | 0.00 | 0.00 | 0.00 | 92 | 1014.9 |
| 20260902110240 | 23 | 180 | 0.0 | 3.2 | 0.00 | 0.00 | 0.00 | 92 | 1014.9 |
| 20260902105734 | 23 | 180 | 0.0 | 3.2 | 0.00 | 0.00 | 0.00 | 92 | 1014.9 |
| 20260902105230 | 23 | 180 | 0.0 | 3.2 | 0.00 | 0.00 | 0.00 | 92 | 1014.9 |
| 20260902104724 | 23 | 203 | 0.0 | 3.2 | 0.00 | 0.00 | 0.00 | 92 | 1014.6 |
| 20260902104220 | 23 | 90 | 0.0 | 3.2 | 0.00 | 0.00 | 0.00 | 92 | 1014.6 |
| 20260902103715 | 23 | 90 | 0.0 | 3.2 | 0.00 | 0.00 | 0.00 | 91 | 1014.6 |
| 20260902103210 | 23 | 90 | 0.0 | 3.2 | 0.00 | 0.00 | 0.00 | 91 | 1014.6 |
| 20260902102710 | 23 | 135 | 0.0 | 4.8 | 0.00 | 0.00 | 0.00 | 91 | 1014.6 |
| 20260902102210 | 23 | 135 | 0.0 | 4.8 | 0.00 | 0.00 | 0.00 | 91 | 1014.6 |
| 20260902101704 | 23 | 338 | 0.0 | 4.8 | 0.00 | 0.00 | 0.00 | 90 | 1014.6 |
| 20260902101200 | 23 | 338 | 0.0 | 4.8 | 0.00 | 0.00 | 0.00 | 89 | 1014.6 |
| 20260902100654 | 23 | 203 | 0.0 | 4.8 | 0.00 | 0.00 | 0.00 | 89 | 1014.2 |
| 20260902100150 | 23 | 23 | 0.0 | 4.8 | 0.00 | 0.00 | 0.00 | 89 | 1014.2 |
| 20260902095645 | 23 | 23 | 0.0 | 4.8 | 0.00 | 0.00 | 0.00 | 90 | 1014.2 |
| 20260902095139 | 23 | 203 | 0.0 | 4.8 | 0.00 | 0.00 | 0.00 | 90 | 1014.2 |
| 20260902094635 | 23 | 203 | 0.0 | 4.8 | 0.00 | 0.00 | 0.00 | 89 | 1014.2 |
| 20260902094129 | 24 | 203 | 3.2 | 4.8 | 0.00 | 0.00 | 0.00 | 89 | 1014.2 |
| 20260902093624 | 24 | 203 | 3.2 | 4.8 | 0.00 | 0.00 | 0.00 | 89 | 1014.2 |
| 20260902093120 | 24 | 203 | 3.2 | 4.8 | 0.00 | 0.00 | 0.00 | 89 | 1014.2 |
| 20260902092615 | 24 | 270 | 0.0 | 4.8 | 0.00 | 0.00 | 0.00 | 89 | 1014.2 |
| 20260902092110 | 24 | 135 | 1.6 | 4.8 | 0.00 | 0.00 | 0.00 | 89 | 1014.2 |
| 20260902091605 | 24 | 248 | 0.0 | 4.8 | 0.00 | 0.00 | 0.00 | 88 | 1014.2 |
| 20260902091105 | 24 | 315 | 3.2 | 4.8 | 0.00 | 0.00 | 0.00 | 88 | 1014.2 |
| 20260902090600 | 24 | 293 | 3.2 | 4.8 | 0.00 | 0.00 | 0.00 | 89 | 1014.2 |
| 20260902090055 | 23 | 203 | 1.6 | 4.8 | 0.00 | 0.00 | 0.00 | 90 | 1014.2 |
| 20260902085550 | 23 | 338 | 3.2 | 6.4 | 0.00 | 0.00 | 0.00 | 91 | 1014.2 |
| 20260902085044 | 23 | 293 | 0.0 | 6.4 | 0.00 | 0.00 | 0.00 | 92 | 1014.2 |
| 20260902084540 | 23 | 180 | 0.0 | 6.4 | 0.00 | 0.00 | 0.00 | 91 | 1014.2 |
| 20260902084035 | 23 | 293 | 0.0 | 6.4 | 0.00 | 0.00 | 0.00 | 90 | 1014.2 |
| 20260902083025 | 24 | 248 | 3.2 | 6.4 | 0.00 | 0.00 | 0.00 | 90 | 1014.2 |
| 20260902082520 | 24 | 270 | 3.2 | 6.4 | 0.00 | 0.00 | 0.00 | 90 | 1014.2 |
| 20260902082015 | 24 | 270 | 1.6 | 6.4 | 0.00 | 0.00 | 0.00 | 90 | 1014.2 |
| 20260902081510 | 24 | 180 | 3.2 | 6.4 | 0.00 | 0.00 | 0.00 | 90 | 1014.2 |
| 20260902081010 | 24 | 338 | 1.6 | 6.4 | 0.00 | 0.00 | 0.00 | 90 | 1014.2 |
| 20260902080510 | 24 | 203 | 3.2 | 6.4 | 0.00 | 0.00 | 0.00 | 89 | 1014.2 |
| 20260902080009 | 24 | 180 | 0.0 | 6.4 | 0.00 | 0.00 | 0.00 | 89 | 1014.2 |
| 20260902075510 | 24 | 248 | 4.8 | 6.4 | 0.00 | 0.00 | 0.00 | 90 | 1014.6 |
| 20260902075004 | 24 | 225 | 0.0 | 3.2 | 0.00 | 0.00 | 0.00 | 90 | 1014.6 |
| 20260902074459 | 24 | 158 | 0.0 | 3.2 | 0.00 | 0.00 | 0.00 | 89 | 1014.2 |
| 20260902073955 | 24 | 203 | 3.2 | 4.8 | 0.00 | 0.00 | 0.00 | 89 | 1014.2 |
| 20260902073450 | 24 | 158 | 3.2 | 4.8 | 0.00 | 0.00 | 0.00 | 89 | 1014.2 |
| 20260902072944 | 24 | 180 | 3.2 | 6.4 | 0.00 | 0.00 | 0.00 | 88 | 1014.2 |
| 20260902072439 | 24 | 248 | 3.2 | 6.4 | 0.00 | 0.00 | 0.00 | 89 | 1014.2 |
| 20260902071935 | 24 | 270 | 1.6 | 6.4 | 0.00 | 0.00 | 0.00 | 89 | 1014.2 |
| 20260902071429 | 24 | 135 | 3.2 | 6.4 | 0.00 | 0.00 | 0.00 | 89 | 1014.2 |
| 20260902070925 | 25 | 203 | 3.2 | 6.4 | 0.00 | 0.00 | 0.00 | 88 | 1014.2 |
| 20260902070420 | 24 | 180 | 3.2 | 6.4 | 0.00 | 0.00 | 0.00 | 89 | 1014.2 |
| 20260902065915 | 24 | 270 | 1.6 | 6.4 | 0.00 | 0.00 | 0.00 | 89 | 1014.2 |
| 20260902065409 | 25 | 135 | 3.2 | 6.4 | 0.00 | 0.00 | 0.00 | 88 | 1014.2 |
| 20260902064905 | 25 | 158 | 3.2 | 6.4 | 0.00 | 0.00 | 0.00 | 88 | 1014.2 |
| 20260902064400 | 25 | 203 | 3.2 | 6.4 | 0.00 | 0.00 | 0.00 | 88 | 1013.9 |
| 20260902063854 | 25 | 270 | 3.2 | 6.4 | 0.00 | 0.00 | 0.00 | 87 | 1013.9 |
| 20260902063350 | 25 | 180 | 3.2 | 6.4 | 0.00 | 0.00 | 0.00 | 87 | 1013.9 |
| 20260902062844 | 25 | 180 | 3.2 | 6.4 | 0.00 | 0.00 | 0.00 | 87 | 1013.9 |
| 20260902062339 | 25 | 203 | 4.8 | 6.4 | 0.00 | 0.00 | 0.00 | 88 | 1014.2 |
| 20260902061834 | 25 | 203 | 0.0 | 8.0 | 0.00 | 0.00 | 0.00 | 87 | 1014.2 |
| 20260902061330 | 25 | 315 | 1.6 | 8.0 | 0.00 | 0.00 | 0.00 | 87 | 1014.2 |
| 20260902060824 | 25 | 338 | 1.6 | 8.0 | 0.00 | 0.00 | 0.00 | 86 | 1014.2 |
| 20260902060320 | 25 | 203 | 0.0 | 8.0 | 0.00 | 0.00 | 0.00 | 86 | 1014.2 |
| 20260902055815 | 26 | 158 | 3.2 | 8.0 | 0.00 | 0.00 | 0.00 | 86 | 1014.2 |
| 20260902055309 | 26 | 180 | 3.2 | 9.7 | 0.00 | 0.00 | 0.00 | 85 | 1014.2 |
| 20260902054805 | 26 | 180 | 3.2 | 9.7 | 0.00 | 0.00 | 0.00 | 85 | 1014.2 |
| 20260902054300 | 26 | 248 | 3.2 | 9.7 | 0.00 | 0.00 | 0.00 | 85 | 1014.2 |
| 20260902053754 | 26 | 225 | 3.2 | 9.7 | 0.00 | 0.00 | 0.00 | 84 | 1014.2 |
| 20260902053250 | 26 | 23 | 3.2 | 9.7 | 0.00 | 0.00 | 0.00 | 84 | 1014.2 |
| 20260902052744 | 26 | 203 | 6.4 | 9.7 | 0.00 | 0.00 | 0.00 | 84 | 1014.2 |
| 20260902052240 | 26 | 225 | 4.8 | 9.7 | 0.00 | 0.00 | 0.00 | 84 | 1014.2 |
| 20260902051740 | 26 | 248 | 6.4 | 9.7 | 0.00 | 0.00 | 0.00 | 84 | 1014.2 |
| 20260902051235 | 26 | 203 | 6.4 | 9.7 | 0.00 | 0.00 | 0.00 | 84 | 1014.2 |
| 20260902050734 | 26 | 68 | 3.2 | 9.7 | 0.00 | 0.00 | 0.00 | 84 | 1014.2 |
| 20260902050230 | 26 | 248 | 6.4 | 9.7 | 0.00 | 0.00 | 0.00 | 84 | 1014.2 |
| 20260902045725 | 26 | 158 | 3.2 | 9.7 | 0.00 | 0.00 | 0.00 | 84 | 1014.2 |
| 20260902045220 | 26 | 203 | 8.0 | 9.7 | 0.00 | 0.00 | 0.00 | 84 | 1014.2 |
| 20260902044714 | 26 | 248 | 6.4 | 9.7 | 0.00 | 0.00 | 0.00 | 84 | 1014.2 |
| 20260902044210 | 26 | 203 | 6.4 | 9.7 | 0.00 | 0.00 | 0.00 | 84 | 1014.2 |
| 20260902043704 | 27 | 203 | 3.2 | 9.7 | 0.00 | 0.00 | 0.00 | 84 | 1014.2 |
| 20260902043159 | 27 | 203 | 4.8 | 9.7 | 0.00 | 0.00 | 0.00 | 83 | 1014.2 |
| 20260902042655 | 27 | 203 | 6.4 | 9.7 | 0.00 | 0.00 | 0.00 | 83 | 1014.2 |
| 20260902042150 | 27 | 203 | 9.7 | 9.7 | 0.00 | 0.00 | 0.00 | 83 | 1014.2 |
| 20260902041644 | 27 | 248 | 4.8 | 9.7 | 0.00 | 0.00 | 0.00 | 83 | 1014.2 |
| 20260902041139 | 27 | 180 | 6.4 | 9.7 | 0.00 | 0.00 | 0.00 | 83 | 1014.2 |
| 20260902040635 | 27 | 203 | 4.8 | 9.7 | 0.00 | 0.00 | 0.00 | 83 | 1014.2 |
| 20260902040130 | 27 | 180 | 6.4 | 9.7 | 0.00 | 0.00 | 0.00 | 83 | 1014.2 |
| 20260902035625 | 27 | 113 | 8.0 | 9.7 | 0.00 | 0.00 | 0.00 | 83 | 1014.2 |
| 20260902035120 | 27 | 203 | 6.4 | 9.7 | 0.00 | 0.00 | 0.00 | 83 | 1014.2 |
| 20260902034615 | 27 | 180 | 4.8 | 8.0 | 0.00 | 0.00 | 0.00 | 83 | 1014.2 |
| 20260902034110 | 27 | 203 | 6.4 | 8.0 | 0.00 | 0.00 | 0.00 | 84 | 1014.2 |
| 20260902033605 | 27 | 203 | 3.2 | 8.0 | 0.00 | 0.00 | 0.00 | 83 | 1014.2 |
| 20260902033100 | 27 | 158 | 3.2 | 8.0 | 0.00 | 0.00 | 0.00 | 84 | 1014.2 |
| 20260902032555 | 27 | 158 | 6.4 | 8.0 | 0.00 | 0.00 | 0.00 | 83 | 1014.2 |
| 20260902032049 | 27 | 180 | 6.4 | 8.0 | 0.00 | 0.00 | 0.00 | 83 | 1014.2 |
| 20260902031544 | 27 | 225 | 3.2 | 8.0 | 0.00 | 0.00 | 0.00 | 83 | 1014.2 |
| 20260902031040 | 27 | 248 | 6.4 | 8.0 | 0.00 | 0.00 | 0.00 | 83 | 1014.2 |
| 20260902030534 | 27 | 248 | 3.2 | 8.0 | 0.00 | 0.00 | 0.00 | 83 | 1014.2 |
| 20260902030030 | 27 | 270 | 3.2 | 8.0 | 0.00 | 0.00 | 0.00 | 84 | 1014.2 |